Location: Kelshall
(52.0000°N, 0.0500°W)
Time: 00:47:35
(UTC+00:00)

Meteor 2-13 Rocket - Pass Details

Date: 18 September 2020
Orbit: 935 x 958 km, 82.5° (Epoch: 30 October)

Event Time Altitude Azimuth Distance (km) Brightness Sun altitude
Rises 19:56:01 0° 349° (N) 3,653 8.0 -17.0°
Reaches altitude 10° 19:58:33 10° 352° (N) 2,703 7.3 -17.4°
Maximum altitude 20:04:45 74° 78° (ENE) 997 4.4 -18.2°
Enters shadow 20:09:03 21° 161° (SSE) 2,011 5.7 -18.8°
